Theta_e
321 320 321 323 325 327 328 329 338 338 344 346 349 351 354 350 349 350 349 346 347 340
320 320 320 322 326 323 327 330 332 334 337 342 345 349 352 347 349 348 349 350 349 343
316 317 318 319 319 321 323 327 331 332 334 338 343 345 350 349 350 347 347 345 346 335
314 314 316 317 317 319 321 323 329 331 332 334 338 343 347 348 344 343 339 337 340 331
311 314 315 315 316 317 318 320 325 329 331 334 335 341 342 339 340 340 334 331 330 326
309 309 311 313 316 316 318 320 321 328 330 332 335 337 338 336 335 336 332 329 325 321
307 309 309 310 313 316 320 323 323 329 332 331 334 337 335 332 328 324 322 318 313 313
307 306 308 310 315 318 320 321 325 330 332 333 333 329 329 323 313 310 307 308 305 306
306 308 311 315 322 320 324 327 328 327 324 320 318 308 310 310 308 306 303 302 303 305
305 308 308 309 308 307 308 309 309 310 310 309 308 304 304 305 306 304 302 303 302 302
305 305 306 304 303 303 304 303 302 303 304 303 302 301 301 303 303 301 301 302 301 300
302 302 301 300 300 300 299 298 298 299 299 298 299 299 300 301 299 298 298 298 298 299
300 298 297 297 298 298 297 296 296 296 297 297 296 296 297 298 298 296 295 295 295 295
297 296 296 296 296 296 295 295 295 295 295 295 296 296 296 297 297 295 295 294 294 295
Wind_Speed
17 12 11 11 13 14 13 13 14 15 15 17 18 17 15 13 13 13 13 15 13 12
15 16 12 14 13 10 17 15 17 19 17 17 18 18 16 14 14 13 13 13 13 11
18 14 13 13 15 16 15 20 20 18 18 19 18 18 17 14 14 13 10 8 11 8
15 17 17 15 16 17 15 16 20 19 19 19 19 17 15 16 15 15 10 9 12 11
16 17 18 19 19 15 16 15 18 19 19 18 19 17 16 12 10 15 14 13 12 12
20 19 18 19 18 16 17 16 15 19 19 19 18 17 12 10 13 13 12 13 13 13
20 19 18 19 18 19 17 18 15 18 19 19 17 13 12 12 11 9 11 11 11 11
18 18 19 19 18 16 16 14 16 18 16 9 10 8 15 15 15 16 16 15 13 12
18 17 15 16 12 12 11 8 7 5 11 12 7 15 20 20 16 15 17 18 16 14
16 13 10 9 10 12 12 12 12 11 13 14 15 23 25 26 15 15 15 15 14 11
13 9 8 8 10 12 12 13 12 14 15 17 13 26 28 27 19 17 16 13 11 10
10 9 9 10 10 11 14 15 16 14 17 18 15 22 25 24 18 18 16 13 11 8
10 10 11 10 11 12 15 17 15 18 17 22 17 22 22 19 14 17 12 13 9 15
11 11 11 13 12 12 15 18 17 19 16 17 17 19 22 19 13 12 12 10 8 6
Wind_Direction
293 279 279 272 278 285 281 273 267 258 245 236 237 228 226 224 227 225 232 230 227 239
294 287 281 277 271 260 272 269 259 263 251 242 234 231 225 223 215 224 224 227 219 220
295 285 281 279 276 279 267 277 270 258 251 246 234 226 224 225 214 212 216 217 200 165
294 292 285 274 269 266 264 262 265 255 248 241 237 229 219 229 215 203 178 179 189 169
293 289 286 280 276 264 261 255 260 255 248 237 230 225 217 206 193 197 180 181 166 160
297 293 283 278 270 261 257 252 248 254 241 236 227 219 194 167 191 195 173 160 154 148
294 290 288 279 266 258 251 250 234 243 232 231 221 193 168 159 147 114 112 111 118 122
300 294 286 278 263 253 244 245 243 236 226 207 170 144 156 127 118 117 110 105 99 98
306 301 301 302 259 236 253 256 238 193 137 121 109 119 119 117 117 117 112 112 105 103
309 316 341 355 44 58 64 66 74 83 94 96 103 112 112 113 112 109 106 108 109 115
325 348 5 28 54 65 71 70 73 73 86 93 94 103 105 103 100 96 93 93 88 97
352 20 32 42 54 68 78 75 72 74 78 85 87 98 104 103 97 93 88 82 82 89
19 41 52 51 58 68 78 83 81 78 73 79 79 75 84 96 103 100 95 83 80 68
43 54 57 64 63 75 85 88 83 82 74 72 70 68 71 80 89 92 94 95 86 85